[[{"header":{"parameterUnit":"m.s-1","parameterCategory":1,"la1":30.2991,"la2":30.254,"lo1":-89.0895,"lo2":-89.0444,"dy":0.0017,"dx":0.0017,"nx":28,"ny":28,"refTime":"2025-04-01T03:00:00:Z","depth":0,"parameterNumber":2,"parameterNumberName":"U-component_of_WINDS"},"data":[0,0,0,0,0,0,0,0,0,0,0,0,0,0,0,0,0,0,0,0,0,0,0,0,0,0,0,0,0,0,0,0,0,0,0,0,0,0,0,0,0,0,0,0,0,0,0,0,0,0,0,0,0,0,0,0,0,0,-3.3258,-3.3259,0,-3.3355,-3.3357,-3.3358,-3.3344,-3.3343,-3.3341,-3.334,-3.3441,-3.3445,-3.3449,0,0,0,0,0,0,0,0,0,0,0,0,0,-3.3064,-3.3068,-3.3258,-3.326,-3.3261,-3.3355,-3.3357,-3.3358,-3.3345,-3.3343,-3.3341,-3.3339,-3.3439,-3.3444,-3.3449,0,0,0,0,0,0,0,0,0,0,0,0,0,-3.3154,-3.3069,-3.3258,-3.3265,-3.3267,-3.3355,-3.3357,-3.3358,-3.3345,-3.3343,-3.334,-3.3338,-3.3438,-3.3444,-3.345,-3.3537,0,0,-3.3469,-3.3472,0,0,0,0,0,0,0,0,-3.3148,-3.3161,-3.3263,-3.3265,-3.3267,-3.3335,-3.3325,-3.3418,-3.3346,-3.3316,-3.334,-3.3337,-3.3408,-3.3416,-3.344,-3.3542,-3.3546,-3.347,-3.3474,-3.3476,-3.3478,0,0,0,0,0,0,0,-3.3142,-3.3156,-3.3297,-3.3265,-3.3267,-3.3265,-3.3275,-3.3343,-3.3374,-3.3318,-3.3317,-3.3329,-3.3408,-3.3434,-3.3442,-3.3548,-3.347,-3.3475,-3.3479,-3.3481,-3.3727,-3.373,0,0,0,0,0,0,-3.3134,-3.3151,-3.3294,-3.33,-3.3201,-3.327,-3.3281,-3.3316,-3.3373,-3.338,-3.3331,-3.3328,-3.3424,-3.3435,-3.3446,-3.3552,-3.3476,-3.3482,-3.3486,-3.3725,-3.3728,-3.3731,0,0,0,0,0,0,-3.313,-3.3147,-3.329,-3.3225,-3.3243,-3.3276,-3.3315,-3.3319,-3.3344,-3.3383,-3.3389,-3.3351,-3.3423,-3.3437,-3.3515,-3.3555,-3.3485,-3.3491,-3.3721,-3.3726,-3.373,-3.3764,0,0,0,0,0,0,-3.3124,-3.3145,-3.3178,-3.3226,-3.3247,-3.3356,-3.3317,-3.3323,-3.3355,-3.3352,-3.3403,-3.3409,-3.3422,-3.3505,-3.3521,-3.3562,-3.3496,-3.3718,-3.3723,-3.3728,-3.376,-3.3769,-3.3777,0,0,0,0,0,-3.3117,-3.3184,-3.318,-3.3197,-3.3288,-3.3359,-3.3371,-3.3383,-3.3358,-3.3392,-3.3417,-3.3408,-3.3548,-3.3513,-3.3531,-3.3575,-3.3715,-3.3722,-3.3728,-3.3756,-3.3767,-3.3777,0,0,0,0,0,0,-3.314,-3.319,-3.3186,-3.327,-3.331,-3.3356,-3.3399,-3.3395,-3.3443,-3.3438,-3.3452,-3.3464,-3.3543,-3.3567,-3.3527,-3.3663,-3.3629,-3.3639,-3.3644,-3.3655,-3.3664,-3.3656,-3.3501,0,0,0,0,0,-3.3155,-3.3207,-3.3249,-3.3319,-3.3339,-3.3366,-3.3397,-3.3403,-3.3445,-3.3462,-3.3493,-3.3535,-3.3588,-3.3623,-3.3675,-3.3764,-3.3775,-3.3803,-3.3812,-3.3819,-3.3827,-3.3876,-3.3889,-3.3751,-3.3751,-3.3751,0,0,-3.3186,-3.322,-3.3252,-3.3325,-3.3356,-3.3411,-3.338,-3.3439,-3.348,-3.3472,-3.3546,-3.3571,-3.3619,-3.3702,-3.3741,-3.3725,-3.3868,-3.3827,-3.3832,-3.3836,-3.3884,-3.3897,-3.3908,-3.3756,-3.3755,-3.3754,0,0,-3.327,-3.3301,-3.3363,-3.3396,-3.3444,-3.3462,-3.3477,-3.3524,-3.3539,-3.3615,-3.361,-3.366,-3.3752,-3.3786,-3.3816,-3.3915,-3.3908,-3.3931,-3.3977,-3.4025,-3.4036,-3.4045,-3.4081,-3.4093,-3.394,-3.394,-3.394,0,-3.3303,-3.3384,-3.3396,-3.3455,-3.3488,-3.3483,-3.3547,-3.3578,-3.3641,-3.3664,-3.3645,-3.3761,-3.3793,-3.3885,-3.3909,-3.3933,-3.3951,-3.3925,-3.4033,-3.4043,-3.4052,-3.4086,-3.4099,-3.3942,-3.3942,-3.3942,-3.3941,0,-3.3421,-3.3478,-3.3523,-3.3583,-3.3621,-3.3682,-3.3704,-3.3741,-3.3745,-3.3765,-3.3843,-3.3881,-3.394,-3.3963,-3.3967,-3.4056,-3.4045,-3.403,-3.3995,-3.4067,-3.4099,-3.4112,-3.3946,-3.3945,-3.3944,-3.3943,0,0,-3.3521,-3.3588,-3.3604,-3.3632,-3.3686,-3.373,-3.3792,-3.385,-3.3881,-3.3926,-3.3978,-3.4057,-3.4043,-3.4077,-3.4085,-3.4128,-3.4204,-3.4107,-3.4109,-3.4124,-3.4305,-3.4315,-3.433,-3.4201,-3.4203,-3.4205,-3.4301,0,-3.361,-3.3718,-3.3732,-3.3828,-3.3881,-3.3878,-3.3932,-3.3971,-3.3992,-3.4041,-3.4064,-3.4119,-3.4097,-3.4118,-3.416,-3.4186,-3.424,-3.4179,-3.425,-3.4252,-3.4237,-3.4347,-3.4358,-3.4446,-3.4313,-3.4315,-3.4317,0,-3.3728,-3.3775,-3.3876,-3.3924,-3.3946,-3.3994,-3.4049,-3.4095,-3.4141,-3.4153,-3.4191,-3.4194,-3.4259,-3.4224,-3.4314,-3.4272,-3.4302,-3.4319,-3.4323,-3.4329,-3.4288,-3.4355,-3.4474,-3.4487,-3.4337,-3.4335,-3.4334,0,-3.379,-3.3879,-3.3951,-3.3975,-3.4032,-3.4066,-3.4092,-3.4135,-3.4169,-3.4217,-3.4239,-3.4295,-3.4325,-3.4369,-3.4387,-3.4359,-3.4477,-3.4442,-3.4489,-3.4488,-3.4513,-3.4511,-3.4637,-3.4533,-3.4533,-3.4533,-3.4533,0,-3.3888,-3.395,-3.398,-3.4024,-3.4094,-3.411,-3.4179,-3.4204,-3.4242,-3.4292,-3.4294,-3.4341,-3.4363,-3.4414,-3.4429,-3.4501,-3.4515,-3.4527,-3.4531,-3.4527,-3.4525,-3.4546,-3.454,-3.4536,-3.4536,-3.4535,-3.4534,0,-3.3968,-3.3991,-3.407,-3.4117,-3.4131,-3.418,-3.4222,-3.4265,-3.4286,-3.4349,-3.4365,-3.4398,-3.4458,-3.4481,-3.4555,-3.4565,-3.4649,-3.4647,-3.4633,-3.4634,-3.4679,-3.4674,-3.4823,-3.4843,-3.4726,-3.4727,-3.4728,0,-3.4028,-3.4076,-3.4129,-3.4162,-3.4189,-3.4242,-3.4277,-3.4295,-3.4332,-3.4388,-3.4425,-3.4484,-3.4533,-3.4629,-3.466,-3.4717,-3.4716,-3.4765,-3.4725,-3.472,-3.4717,-3.4713,-3.4718,-3.4772,-3.4773,-3.4774,-3.4774,0,-3.4133,-3.4142,-3.4192,-3.4246,-3.4288,-3.4332,-3.4374,-3.4402,-3.4426,-3.4468,-3.4529,-3.4566,-3.4641,-3.4701,-3.4759,-3.4786,-3.4785,-3.4787,-3.4801,-3.4797,-3.4786,-3.4792,-3.4652,-3.4783,-3.4782,-3.4782,-3.4781,-3.4781,-3.4205,-3.4247,-3.4291,-3.4347,-3.4381,-3.4421,-3.4465,-3.4491,-3.4542,-3.4604,-3.4612,-3.4678,-3.4723,-3.4801,-3.4831,-3.4883,-3.4871,-3.4891,-3.4896,-3.49,-3.4903,-3.4779,-3.4894,-3.4894,-3.4894,-3.4894,-3.4893,0,-3.4309,-3.4338,-3.4389,-3.4448,-3.4493,-3.4487,-3.4535,-3.4572,-3.4629,-3.4672,-3.472,-3.479,-3.4848,-3.4884,-3.4943,-3.4978,-3.4979,-3.4993,-3.499,-3.4996,-3.4911,-3.4893,-3.4991,-3.4991,-3.4991,-3.4991,-3.4991,-3.4991,-3.4369,-3.444,-3.4455,-3.4544,-3.4572,-3.4636,-3.4663,-3.4701,-3.4734,-3.4813,-3.4861,-3.4884,-3.4924,-3.4986,-3.5039,-3.5049,-3.507,-3.5085,-3.5093,-3.5012,-3.5002,-3.4993,-3.4976,-3.5089,-3.509,-3.5174,-3.5175,-3.5175]},{"header":{"parameterUnit":"m.s-1","parameterCategory":1,"la1":30.2991,"la2":30.254,"lo1":-89.0895,"lo2":-89.0444,"dy":0.0017,"dx":0.0017,"nx":28,"ny":28,"refTime":"2025-04-01T03:00:00:Z","depth":0,"parameterNumber":3,"parameterNumberName":"V-component_of_WINDS"},"data":[0,0,0,0,0,0,0,0,0,0,0,0,0,0,0,0,0,0,0,0,0,0,0,0,0,0,0,0,0,0,0,0,0,0,0,0,0,0,0,0,0,0,0,0,0,0,0,0,0,0,0,0,0,0,0,0,0,0,4.3734,4.3735,0,4.3818,4.3819,4.382,4.3821,4.382,4.3819,4.3818,4.3901,4.3904,4.3907,0,0,0,0,0,0,0,0,0,0,0,0,0,4.3571,4.3574,4.3733,4.3735,4.3736,4.3818,4.3819,4.382,4.3821,4.382,4.3819,4.3818,4.3899,4.3903,4.3907,0,0,0,0,0,0,0,0,0,0,0,0,0,4.3647,4.3575,4.3733,4.3746,4.3748,4.3818,4.3819,4.382,4.3822,4.382,4.3818,4.3817,4.3898,4.3903,4.3908,4.3968,0,0,4.3922,4.3924,0,0,0,0,0,0,0,0,4.3643,4.3653,4.3743,4.3746,4.3748,4.3808,4.3792,4.387,4.3822,4.3794,4.3818,4.3816,4.3871,4.3878,4.3897,4.3972,4.3976,4.3922,4.3925,4.3927,4.3929,0,0,0,0,0,0,0,4.3638,4.365,4.3767,4.3745,4.3747,4.3747,4.3756,4.3807,4.384,4.3796,4.3796,4.3807,4.3871,4.3892,4.3899,4.3977,4.3922,4.3927,4.393,4.3931,4.4109,4.4111,0,0,0,0,0,0,4.363,4.3645,4.3764,4.3769,4.3691,4.3751,4.3762,4.379,4.3839,4.3845,4.3808,4.3806,4.3885,4.3893,4.3901,4.3978,4.3927,4.3932,4.3935,4.4107,4.4109,4.4112,0,0,0,0,0,0,4.3627,4.3641,4.3761,4.3708,4.3723,4.3756,4.3788,4.3792,4.3813,4.3848,4.3854,4.3823,4.3884,4.3895,4.3953,4.398,4.3934,4.3938,4.4105,4.4108,4.411,4.4129,0,0,0,0,0,0,4.3622,4.364,4.3663,4.3708,4.3726,4.3811,4.3789,4.3795,4.3822,4.3821,4.3864,4.3869,4.3883,4.3946,4.3957,4.3986,4.3942,4.4103,4.4106,4.411,4.4126,4.4132,4.4138,0,0,0,0,0,4.3616,4.3664,4.3665,4.3679,4.3756,4.3813,4.3823,4.3839,4.3824,4.3848,4.3871,4.3868,4.3976,4.3951,4.3965,4.3995,4.4101,4.4105,4.4109,4.4124,4.4131,4.4137,0,0,0,0,0,0,4.3619,4.367,4.3671,4.3735,4.377,4.3813,4.3843,4.3846,4.3884,4.3881,4.3899,4.3909,4.3966,4.3987,4.3959,4.4058,4.4036,4.4043,4.4043,4.405,4.4056,4.405,4.3946,0,0,0,0,0,4.3628,4.3671,4.3712,4.3764,4.3782,4.381,4.3835,4.3845,4.3881,4.3895,4.3922,4.3957,4.3998,4.4025,4.4065,4.4129,4.4139,4.4157,4.4163,4.4167,4.4173,4.421,4.4219,4.4125,4.4125,4.4125,0,0,4.3645,4.3678,4.3703,4.3765,4.3794,4.3837,4.3822,4.3868,4.39,4.3902,4.3959,4.398,4.4019,4.4081,4.411,4.41,4.4201,4.4173,4.4176,4.4179,4.4215,4.4224,4.4232,4.4128,4.4128,4.4127,0,0,4.3699,4.3728,4.3775,4.3805,4.3848,4.3867,4.3879,4.3922,4.3937,4.3995,4.3998,4.4036,4.4107,4.4136,4.416,4.4228,4.4227,4.424,4.4269,4.4305,4.4313,4.4319,4.4345,4.4353,4.4246,4.4246,4.4246,0,4.3714,4.3781,4.3799,4.3846,4.3874,4.388,4.3928,4.3955,4.4009,4.4028,4.4016,4.4108,4.4134,4.4204,4.4221,4.424,4.4254,4.4235,4.431,4.4317,4.4324,4.4348,4.4357,4.4247,4.4247,4.4247,4.4247,0,4.3798,4.3845,4.3878,4.3932,4.3964,4.4011,4.4036,4.4066,4.4074,4.4094,4.4153,4.4186,4.4234,4.4251,4.4258,4.4322,4.4315,4.4307,4.4286,4.4334,4.4357,4.4366,4.4249,4.4249,4.4248,4.4248,0,0,4.3855,4.3921,4.3933,4.3959,4.4009,4.4045,4.4093,4.4141,4.4167,4.4204,4.4246,4.4307,4.4301,4.4328,4.4338,4.437,4.4423,4.4358,4.4359,4.437,4.4498,4.4504,4.4514,4.4423,4.4425,4.4426,4.4495,0,4.3915,4.4002,4.4021,4.4096,4.414,4.4147,4.4189,4.4224,4.4245,4.4284,4.4306,4.435,4.4337,4.4354,4.4386,4.441,4.4449,4.4405,4.4461,4.4463,4.4452,4.4526,4.4533,4.4596,4.4504,4.4505,4.4506,0,4.3996,4.4038,4.4118,4.4165,4.4184,4.4221,4.4269,4.4306,4.4347,4.4359,4.4391,4.4399,4.445,4.4426,4.4496,4.4466,4.449,4.4506,4.4509,4.4515,4.4488,4.4535,4.4616,4.4625,4.4521,4.4519,4.4518,0,4.4031,4.4107,4.4166,4.4187,4.4243,4.4269,4.4293,4.4332,4.4361,4.4402,4.4421,4.4467,4.4492,4.4527,4.4547,4.4528,4.4616,4.4594,4.4628,4.4628,4.4646,4.4645,4.4733,4.4661,4.4661,4.4661,4.466,0,4.4096,4.4145,4.4183,4.4218,4.4274,4.4295,4.4349,4.4373,4.4408,4.4449,4.4457,4.4494,4.4518,4.4559,4.4575,4.4632,4.4642,4.4654,4.4658,4.4654,4.4653,4.467,4.4666,4.4663,4.4663,4.4662,4.4662,0,4.4144,4.4171,4.4236,4.4284,4.4297,4.4336,4.4377,4.4412,4.4433,4.4485,4.4498,4.4531,4.458,4.4604,4.4664,4.4675,4.4739,4.4739,4.4726,4.4727,4.4761,4.4758,4.4863,4.4879,4.4796,4.4797,4.4797,0,4.4184,4.4223,4.4276,4.4305,4.433,4.4375,4.4406,4.4429,4.446,4.451,4.4539,4.4589,4.463,4.4708,4.4737,4.4784,4.4786,4.482,4.4793,4.4788,4.4788,4.4785,4.479,4.4825,4.4825,4.4826,4.4827,0,4.4253,4.4266,4.431,4.4359,4.4396,4.4435,4.4474,4.4497,4.4526,4.4561,4.4612,4.4644,4.4707,4.4757,4.4806,4.483,4.4834,4.4835,4.4846,4.4842,4.4833,4.484,4.474,4.4832,4.4832,4.4831,4.4831,4.4831,4.4299,4.4335,4.4378,4.4428,4.446,4.4497,4.4533,4.456,4.4604,4.4658,4.4669,4.4724,4.4764,4.4831,4.4857,4.49,4.4892,4.4907,4.4911,4.4914,4.4917,4.4826,4.4909,4.4909,4.4908,4.4908,4.4908,0,4.437,4.4399,4.4444,4.45,4.4539,4.4541,4.4584,4.4617,4.4666,4.4704,4.4745,4.4805,4.4854,4.4888,4.4937,4.4965,4.4968,4.4977,4.4976,4.4982,4.492,4.4907,4.4974,4.4974,4.4974,4.4974,4.4974,4.4974,4.4411,4.4471,4.4489,4.4566,4.4594,4.4649,4.4674,4.4709,4.474,4.4807,4.4848,4.4871,4.4908,4.496,4.5005,4.5014,4.5032,4.5042,4.505,4.4993,4.4986,4.4979,4.4966,4.5045,4.5046,4.5108,4.5109,4.5109]}]]